Weather History for Point Hope, AK

Change the Weather History Date:

Friday, March 29, 2013

  Actual Average Record
Temperature  
Mean Temperature -9 °F -  
Max Temperature -4 °F 7 °F 17 °F (2003)
Min Temperature -14 °F 0 °F -20 °F (2004)
Degree Days  
Heating Degree Days 74    
Moisture  
Dew Point -18 °F    
Average Humidity 67    
Maximum Humidity 77    
Minimum Humidity 59    
Precipitation  
Precipitation 0.00 in - - ()
Sea Level Pressure  
Sea Level Pressure 30.00 in    
Wind  
Wind Speed 7 mph (NNW)    
Max Wind Speed 9 mph    
Max Gust Speed -    
Averages and records for this station are not official NWS values.
T = Trace of Precipitation, MM = Missing Value Source: NWS Daily Summary

Daily Weather History Graph

Daily Weather History Graph

Search for Another Location

Airport:

Trip Planner

Search our weather history database for the weather conditions in past years. The results will help you decide how hot, cold, wet, or windy it might be!

Date:

Astronomy

Mar. 29, 2013 Rise Set
Actual Time 8:25 AM AKDT 9:59 PM AKDT
Civil Twilight 7:26 AM AKDT 10:59 PM AKDT
Nautical Twilight 6:06 AM AKDT 12:21 AM AKDT
Astronomical Twilight 3:34 AM AKDT 2:39 AM AKDT
Moon 1:32 AM AKDT (3/29) 8:07 AM AKDT (3/29)
Length of Visible Light 15h 32m
Length of Day
13h 33m
Waning Gibbous, 92% of the Moon is Illuminated
Mar 29
Waning Gibbous
Apr 2
Last Quarter
Apr 10
New
Apr 18
First Quarter
Apr 25
Full

Hourly Weather History & Observations

Time (AKDT) Temp. Windchill Dew Point Humidity Pressure Visibility Wind Dir Wind Speed Gust Speed Precip Events Conditions
12:36 AM -11.2 °F -26.4 °F -18.4 °F 70% 30.01 in - North 6.9 mph - N/A   Clear
12:56 AM -9.4 °F -25.6 °F -18.4 °F 65% 30.01 in - North 8.1 mph - N/A   Clear
1:16 AM -9.4 °F -25.6 °F -18.4 °F 65% 30.01 in - North 8.1 mph - N/A   Clear
1:36 AM -11.2 °F -27.8 °F -18.4 °F 70% 30.00 in - North 8.1 mph - N/A   Clear
1:56 AM -11.2 °F -27.8 °F -20.2 °F 64% 30.00 in - NNW 8.1 mph - N/A   Clear
2:16 AM -11.2 °F -26.4 °F -20.2 °F 64% 30.00 in - North 6.9 mph - N/A   Clear
2:36 AM -11.2 °F -26.4 °F -20.2 °F 64% 30.00 in - North 6.9 mph - N/A   Clear
2:56 AM -11.2 °F -26.4 °F -20.2 °F 64% 30.00 in - North 6.9 mph - N/A   Clear
3:16 AM -13.0 °F -28.6 °F -20.2 °F 70% 30.00 in - North 6.9 mph - N/A   Clear
3:56 AM -14.8 °F -30.8 °F -23.8 °F 64% 30.00 in - North 6.9 mph - N/A   Clear
4:16 AM -13.0 °F -28.6 °F -20.2 °F 70% 30.00 in - North 6.9 mph - N/A   Clear
4:36 AM -14.8 °F -32.2 °F -23.8 °F 64% 30.00 in - North 8.1 mph - N/A   Clear
4:56 AM -14.8 °F -32.2 °F -20.2 °F 77% 29.99 in - North 8.1 mph - N/A   Clear
5:16 AM -13.0 °F -31.3 °F -20.2 °F 70% 29.99 in - North 9.2 mph - N/A   Clear
5:56 AM -14.8 °F -32.2 °F -23.8 °F 64% 29.99 in - North 8.1 mph - N/A   Clear
6:16 AM -13.0 °F -30.0 °F -20.2 °F 70% 29.99 in - North 8.1 mph - N/A   Clear
6:36 AM -13.0 °F -30.0 °F -22.0 °F 64% 29.99 in - North 8.1 mph - N/A   Clear
6:56 AM -13.0 °F -28.6 °F -20.2 °F 70% 29.99 in - North 6.9 mph - N/A   Clear
7:16 AM -14.8 °F -29.1 °F -23.8 °F 64% 29.99 in - North 5.8 mph - N/A   Clear
7:36 AM -14.8 °F -32.2 °F -22.0 °F 70% 29.98 in - North 8.1 mph - N/A   Clear
7:56 AM -14.8 °F -32.2 °F -23.8 °F 64% 29.98 in - North 8.1 mph - N/A   Clear
8:16 AM -14.8 °F -33.5 °F -22.0 °F 70% 29.98 in - North 9.2 mph - N/A   Clear
8:56 AM -14.8 °F -29.1 °F -22.0 °F 70% 29.98 in - NNW 5.8 mph - N/A   Clear
9:16 AM -14.8 °F -32.2 °F -23.8 °F 64% 29.98 in - NNW 8.1 mph - N/A   Clear
9:36 AM -14.8 °F -29.1 °F -20.2 °F 77% 29.99 in - North 5.8 mph - N/A   Clear
9:56 AM -13.0 °F -28.6 °F -23.8 °F 59% 29.99 in - North 6.9 mph - N/A   Clear
10:16 AM -13.0 °F -27.0 °F -20.2 °F 70% 29.98 in - North 5.8 mph - N/A   Clear
10:36 AM -14.8 °F -29.1 °F -22.0 °F 70% 29.98 in - NNW 5.8 mph - N/A   Clear
11:16 AM -11.2 °F -26.4 °F -20.2 °F 64% 29.98 in - NNW 6.9 mph - N/A   Clear
11:36 AM -9.4 °F -24.3 °F -18.4 °F 65% 29.98 in - North 6.9 mph - N/A   Clear
11:56 AM -9.4 °F -24.3 °F -16.6 °F 71% 29.99 in - NNW 6.9 mph - N/A   Clear
12:16 PM -9.4 °F -20.9 °F -16.6 °F 71% 29.99 in - North 4.6 mph - N/A   Clear
12:36 PM -7.6 °F -18.8 °F -16.6 °F 65% 30.00 in - North 4.6 mph - N/A   Clear
12:56 PM -7.6 °F -18.8 °F -14.8 °F 71% 30.00 in - North 4.6 mph - N/A   Clear
1:16 PM -7.6 °F -20.6 °F -14.8 °F 71% 29.99 in - North 5.8 mph - N/A   Clear
1:36 PM -7.6 °F -22.1 °F -14.8 °F 71% 29.99 in - NNW 6.9 mph - N/A   Clear
1:56 PM -5.8 °F -19.9 °F -14.8 °F 65% 30.00 in - NNW 6.9 mph - N/A   Clear
2:16 PM -5.8 °F -18.4 °F -14.8 °F 65% 30.00 in - North 5.8 mph - N/A   Clear
2:36 PM -5.8 °F -18.4 °F -14.8 °F 65% 30.00 in - North 5.8 mph - N/A   Clear
2:56 PM -5.8 °F -18.4 °F -13.0 °F 71% 30.00 in - North 5.8 mph - N/A   Clear
3:16 PM -4.0 °F -14.6 °F -11.2 °F 71% 30.00 in - North 4.6 mph - N/A   Clear
3:36 PM -4.0 °F -17.8 °F -11.2 °F 71% 30.00 in - North 6.9 mph - N/A   Clear
3:56 PM -4.0 °F -19.0 °F -13.0 °F 65% 30.00 in - NNW 8.1 mph - N/A   Clear
4:16 PM -5.8 °F -18.4 °F -13.0 °F 71% 30.00 in - NNW 5.8 mph - N/A   Clear
4:36 PM -5.8 °F -18.4 °F -13.0 °F 71% 30.01 in - NNW 5.8 mph - N/A   Clear
4:56 PM -5.8 °F -18.4 °F -14.8 °F 65% 30.01 in - NNW 5.8 mph - N/A   Clear
5:16 PM -5.8 °F -19.9 °F -14.8 °F 65% 30.00 in - NNW 6.9 mph - N/A   Clear
5:36 PM -5.8 °F -21.2 °F -14.8 °F 65% 30.00 in - NNW 8.1 mph - N/A   Clear
5:56 PM -5.8 °F -21.2 °F -14.8 °F 65% 30.01 in - NNW 8.1 mph - N/A   Clear
6:16 PM -5.8 °F -21.2 °F -14.8 °F 65% 30.01 in - NNW 8.1 mph - N/A   Clear
6:36 PM -5.8 °F -22.4 °F -13.0 °F 71% 30.02 in - NNW 9.2 mph - N/A   Clear
6:56 PM -5.8 °F -22.4 °F -14.8 °F 65% 30.02 in - NNW 9.2 mph - N/A   Clear
7:16 PM -5.8 °F -22.4 °F -14.8 °F 65% 30.02 in - NNW 9.2 mph - N/A   Clear
7:36 PM -5.8 °F -22.4 °F -16.6 °F 60% 30.02 in - NNW 9.2 mph - N/A   Clear
7:56 PM -7.6 °F -23.4 °F -16.6 °F 65% 30.02 in - NNW 8.1 mph - N/A   Clear
8:16 PM -7.6 °F -22.1 °F -16.6 °F 65% 30.02 in - NNW 6.9 mph - N/A   Clear
8:36 PM -7.6 °F -23.4 °F -16.6 °F 65% 30.03 in - NNW 8.1 mph - N/A   Clear
8:56 PM -7.6 °F -23.4 °F -16.6 °F 65% 30.03 in - NNW 8.1 mph - N/A   Clear
9:16 PM -9.4 °F -25.6 °F -18.4 °F 65% 30.03 in - NNW 8.1 mph - N/A   Clear
9:36 PM -9.4 °F -25.6 °F -18.4 °F 65% 30.03 in - NNW 8.1 mph - N/A   Clear
9:56 PM -9.4 °F -25.6 °F -18.4 °F 65% 30.04 in - NNW 8.1 mph - N/A   Clear
10:16 PM -9.4 °F -26.8 °F -18.4 °F 65% 30.04 in - NNW 9.2 mph - N/A   Clear
10:36 PM -9.4 °F -24.3 °F -20.2 °F 59% 30.04 in - NNW 6.9 mph - N/A   Clear
10:56 PM -11.2 °F -27.8 °F -20.2 °F 64% 30.04 in - NNW 8.1 mph - N/A   Clear
11:16 PM -11.2 °F -26.4 °F -20.2 °F 64% 30.05 in - NNW 6.9 mph - N/A   Clear
11:36 PM -11.2 °F -24.8 °F -20.2 °F 64% 30.06 in - NNW 5.8 mph - N/A   Clear
11:56 PM -11.2 °F -26.4 °F -22.0 °F 59% 30.06 in - NNW 6.9 mph - N/A   Clear